User: anonymous   Login
Location: Delta State University
(33.7460°N, 90.7320°W)
Time: 16:45:05
(UTC-05:00)
Language:

Iridium 13 - Orbit

View from above orbital plane
View from above orbital plane
View from above satellite
View from above satellite

Ground track
Ground track

The orbit data is extracted from the following two-line orbital elements,

1 24840U 97030E   17233.40385937  .00000191  00000-0  61090-4 0  9993
2 24840  86.3996 322.9307 0003101  92.5244 267.6307 14.34218846 56326
Epoch (UTC): 21 August 2017 09:41:33
Eccentricity: 0.0003101
inclination: 86.3996°
perigee height: 775 km
apogee height: 780 km
right ascension of ascending node: 322.9307°
argument of perigee: 92.5244°
revolutions per day: 14.34218846
mean anomaly at epoch: 267.6307°
orbit number at epoch: 5632

The dashed part of the orbit path shows where the satellite is in the earth's shadow,  

DLR